Regional Weather Roundup
Issued by NWS

Home | Current Version | Previous Version | Graphics & Text | Print | Product List | Glossary Off
Versions: 1 2 3 4 5 6 7 8 9 10 11 12 13 14 15 16 17 18 19 20 21 22 23 24 25 26 27 28 29 30 31 32 33 34 35 36 37 38 39 40 41 42 43 44 45 46 47 48 49 50

986
ASUS43 KTOP 251408
RWRKS

WEATHER ROUNDUP FOR KANSAS
NATIONAL WEATHER SERVICE GOODLAND KS
900 AM CDT MON JUL 25 2016

NOTE:  "FAIR" INDICATES FEW OR NO CLOUDS BELOW 12,000 FEET WITH NO
SIGNIFICANT WEATHER AND/OR OBSTRUCTIONS TO VISIBILITY.

KSZ001>006-013>018-027>032-041>047-251500-
NORTHWEST KANSAS

CITY           SKY/WX    TMP DP  RH WIND       PRES   REMARKS
GOODLAND       SUNNY     68  60  75 CALM      30.19S
HAYS           MOSUNNY   70  61  73 E18       30.11R
HILL CITY      CLOUDY    71  65  81 NE13      30.15R
RUSSELL        CLOUDY    68  68 100 E17       30.11R
$$

KSZ061>065-074>080-084>089-251500-
SOUTHWEST KANSAS

CITY           SKY/WX    TMP DP  RH WIND       PRES   REMARKS
DODGE CITY     PTSUNNY   70  67  90 N14       30.13R
ELKHART          N/A     69  63  81 NW6         N/A
GARDEN CITY    PTSUNNY   69  66  90 N8        30.14R
GREAT BEND     CLOUDY    70  63  78 NE8       30.11R
LIBERAL        PTSUNNY   72  64  78 N10       30.15R
PRATT          CLOUDY    68  66  92 NE7       30.11R
$$

KSZ066>073-081>083-090>101-251500-
SOUTHEAST KANSAS

CITY           SKY/WX    TMP DP  RH WIND       PRES   REMARKS
CHANUTE        TSTM      72  70  93 SW8       30.12R FOG
COFFEYVILLE    CLOUDY    74  72  93 N17G25    30.07R
HUTCHINSON     PTSUNNY   70  67  90 NE9G23    30.05R
MEDICINE LODGE   N/A     73  68  84 N7        30.09R
NEWTON         CLOUDY    68  66  93 E12G21    30.08F
PARSONS          N/A    N/A N/A N/A MISG      30.10R THUNDER
WICHITA INTL   CLOUDY    74  68  81 NE23G29   30.04R
WICHITA JABRA  CLOUDY    70  68  93 NE21G31   30.03F
WICHITA MCCONL LGT RAIN  72  68  88 E25G36    30.01F
WINFIELD       CLOUDY    73  69  87 NE14G22   30.02S
$$

KSZ007>012-019>026-033>040-048>060-102>105-251500-
NORTHEAST KANSAS

CITY           SKY/WX    TMP DP  RH WIND       PRES   REMARKS
CONCORDIA      RAIN      68  66  93 N3        30.14R FOG
EMPORIA        RAIN      71  70  96 SW7       30.13R FOG
LAWRENCE       CLOUDY    74  68  81 CALM      30.08R
MANHATTAN      LGT RAIN  70  69  97 W5        30.13R
MARYSVILLE     CLOUDY    68  66  94 CALM      30.14R
OLATHE IND     CLOUDY    75  71  87 CALM      30.09R
OLATHE EXE     CLOUDY    74  69  85 CALM      30.08R
SALINA         LGT RAIN  72  69  90 E10       30.09F
TOPEKA BILLARD LGT RAIN  72  69  90 W5        30.10R
TOPEKA FORBES  LGT RAIN  73  70  90 NW6       30.11R
$$




USA.gov is the U.S. government's official web portal to all federal, state and local government web resources and services.